Pellston, MI

5:27 PM EST on February 24, 2018 (GMT -0500)
Pellston Regional Airport Of Emmet County

Weather History for KPLN - August, 2013

Change the Weather History Date:

Wednesday, August 7, 2013

  Actual Average Record
Temperature  
Mean Temperature 65 °F -  
Max Temperature 73 °F 79 °F 93 °F (2001)
Min Temperature 55 °F 53 °F 39 °F (1976)
Growing Degree Days 15 (Base 50)    
Moisture  
Dew Point 61 °F    
Average Humidity 84    
Maximum Humidity 100    
Minimum Humidity 63    
Precipitation  
Precipitation 0.50 in - - ()
Sea Level Pressure  
Sea Level Pressure 29.79 in    
Wind  
Wind Speed 6 mph (WNW)    
Max Wind Speed 15 mph    
Max Gust Speed 21 mph    
Visibility 8 miles    
Events Rain , Thunderstorm    
Averages and records for this station are not official NWS values.
T = Trace of Precipitation, MM = Missing Value Source: NWS Daily Summary

Daily Weather History Graph

Daily Weather History Graph

Search for Another Location

Airport or City:

Trip Planner

Search our weather history database for the weather conditions in past years. The results will help you decide how hot, cold, wet, or windy it might be!

Date:

Astronomy

Aug. 07, 2013 Rise Set
Actual Time 6:30 AM EDT 8:58 PM EDT
Civil Twilight 5:56 AM EDT 9:31 PM EDT
Nautical Twilight 5:15 AM EDT 10:13 PM EDT
Astronomical Twilight 4:27 AM EDT 11:00 PM EDT
Moon 7:23 AM EDT (8/7) 8:58 PM EDT (8/7)
Length of Visible Light 15h 35m
Length of Day
14h 28m
New Moon, 1% of the Moon is Illuminated
Aug 7
New Moon
Aug 14
First Quarter
Aug 20
Full
Aug 28
Last Quarter
Sep 5
New

Hourly Weather History & Observations

Time (EDT) Temp. Dew Point Humidity Pressure Visibility Wind Dir Wind Speed Gust Speed Precip Events Conditions
12:54 AM 66.9 °F 64.0 °F 90% 29.79 in 8.0 mi ENE 4.6 mph - 0.02 in   Overcast
1:40 AM 62.6 °F 62.6 °F 100% 29.78 in 1.8 mi Calm Calm - N/A   Clear
1:51 AM 62.6 °F 62.6 °F 100% 29.78 in 3.0 mi ESE 3.5 mph - N/A   Clear
1:54 AM 64.0 °F 62.1 °F 93% 29.77 in 4.0 mi East 3.5 mph - N/A   Partly Cloudy
2:54 AM 64.0 °F 62.1 °F 93% 29.75 in 5.0 mi SE 5.8 mph - N/A   Clear
3:54 AM 64.9 °F 63.0 °F 93% 29.72 in 5.0 mi ESE 3.5 mph - N/A   Partly Cloudy
4:27 AM 69.8 °F 64.4 °F 83% 29.73 in 8.0 mi SSW 12.7 mph 19.6 mph 0.02 in Rain , Thunderstorm Light Rain
4:54 AM 64.9 °F 62.1 °F 90% 29.74 in 6.0 mi SSW 11.5 mph 17.3 mph 0.09 in Rain , Thunderstorm Thunderstorms and Rain
5:08 AM 64.4 °F - N/A% 29.74 in 2.0 mi SW 3.5 mph - 0.11 in Rain , Thunderstorm Thunderstorms and Rain
5:29 AM 62.6 °F - N/A% 29.70 in 3.0 mi NE 3.5 mph - 0.22 in Rain Rain
5:54 AM 63.0 °F - N/A% 29.68 in 10.0 mi East 6.9 mph - 0.24 in Rain Light Rain
6:54 AM 62.1 °F 61.0 °F 96% 29.71 in 10.0 mi West 6.9 mph - 0.00 in   Overcast
7:06 AM 62.6 °F 62.6 °F 100% 29.71 in 10.0 mi Calm Calm - N/A   Overcast
7:54 AM 64.0 °F 62.1 °F 93% 29.71 in 4.0 mi Calm Calm - 0.02 in Rain Rain
8:11 AM 64.4 °F 62.6 °F 94% 29.71 in 1.8 mi Calm Calm - 0.04 in Rain Rain
8:18 AM 64.4 °F 62.6 °F 94% 29.71 in 1.8 mi Variable 5.8 mph - 0.09 in Rain Heavy Rain
8:25 AM 64.4 °F 62.6 °F 94% 29.72 in 3.0 mi WNW 9.2 mph 16.1 mph 0.10 in Rain Light Rain
8:54 AM 64.0 °F 63.0 °F 96% 29.73 in 4.0 mi West 9.2 mph - 0.10 in Rain Light Rain
9:06 AM 64.4 °F 62.6 °F 94% 29.74 in 2.5 mi West 10.4 mph - 0.02 in Rain Light Rain
9:14 AM 64.4 °F 62.6 °F 94% 29.74 in 2.0 mi West 8.1 mph - 0.03 in Rain Rain
9:23 AM 64.4 °F 64.4 °F 100% 29.74 in 8.0 mi West 9.2 mph - 0.03 in Rain Light Rain
9:52 AM 66.2 °F 64.4 °F 94% 29.75 in 10.0 mi WNW 6.9 mph - 0.03 in   Overcast
9:54 AM 68.0 °F 64.9 °F 90% 29.74 in 10.0 mi WNW 9.2 mph - 0.03 in   Mostly Cloudy
10:32 AM 69.8 °F 64.4 °F 83% 29.75 in 10.0 mi West 10.4 mph - N/A   Mostly Cloudy
10:54 AM 70.0 °F 63.0 °F 78% 29.75 in 10.0 mi WNW 9.2 mph 18.4 mph N/A   Mostly Cloudy
11:54 AM 71.1 °F 62.1 °F 73% 29.78 in 10.0 mi West 11.5 mph - N/A   Mostly Cloudy
12:54 PM 73.0 °F 62.1 °F 68% 29.80 in 10.0 mi West 8.1 mph 17.3 mph N/A   Mostly Cloudy
1:17 PM 73.4 °F 62.6 °F 69% 29.80 in 10.0 mi West 12.7 mph 17.3 mph N/A   Overcast
1:49 PM 71.6 °F 60.8 °F 69% 29.82 in 10.0 mi West 10.4 mph - N/A   Overcast
1:54 PM 72.0 °F 61.0 °F 68% 29.81 in 10.0 mi WNW 15.0 mph - N/A   Mostly Cloudy
2:25 PM 71.6 °F 60.8 °F 69% 29.82 in 10.0 mi West 6.9 mph - N/A   Overcast
2:54 PM 70.0 °F 61.0 °F 73% 29.82 in 10.0 mi West 8.1 mph - N/A   Overcast
3:05 PM 69.8 °F 60.8 °F 73% 29.83 in 10.0 mi WSW 9.2 mph - N/A   Overcast
3:54 PM 71.1 °F 61.0 °F 70% 29.84 in 10.0 mi WNW 11.5 mph - 0.00 in   Overcast
4:54 PM 70.0 °F 60.1 °F 71% 29.85 in 10.0 mi WNW 10.4 mph - N/A   Overcast
5:54 PM 71.1 °F 57.9 °F 63% 29.86 in 10.0 mi NW 10.4 mph - N/A   Mostly Cloudy
6:54 PM 69.1 °F 59.0 °F 70% 29.88 in 10.0 mi WNW 15.0 mph 20.7 mph N/A   Partly Cloudy
7:54 PM 64.9 °F 57.9 °F 78% 29.90 in 10.0 mi NW 10.4 mph - N/A   Mostly Cloudy
8:54 PM 63.0 °F 55.9 °F 78% 29.92 in 10.0 mi WNW 10.4 mph - N/A   Partly Cloudy
9:12 PM 62.6 °F 55.4 °F 77% 29.93 in 10.0 mi NW 6.9 mph - N/A   Mostly Cloudy
9:54 PM 62.1 °F 55.9 °F 80% 29.94 in 10.0 mi WNW 8.1 mph - N/A   Overcast
10:20 PM 60.8 °F 55.4 °F 82% 29.96 in 10.0 mi NW 8.1 mph - N/A   Scattered Clouds
10:54 PM 57.9 °F 54.0 °F 87% 29.96 in 10.0 mi WNW 4.6 mph - N/A   Clear
11:54 PM 55.9 °F 54.0 °F 93% 29.98 in 10.0 mi WNW 5.8 mph - N/A   Clear